Orbital Elements at Epoch 2457484.5 (2016-Apr-06.0) TDB
Reference: JPL 2 (heliocentric ecliptic J2000)
Element | Value | Uncertainty (1-sigma) | Units |
e | .3376279744332792 | 0.10525 | |
a | 56.16809320734318 | 4.4536 | au |
q | 37.20417366996828 | 2.9619 | au |
i | 30.6111105944623 | 0.060954 | deg |
node | 340.4956969541768 | 0.061605 | deg |
peri | 15.45554739839248 | 19.277 | deg |
M | 105.6287539305291 | 40.311 | deg |
tp | 2412370.368225015445 (1892-Sep-28.86822502) | 11851 | TDB |
period | 153756.310044858 420.96 | 18287 50.07 | d yr |
n | .002341367322713266 | 0.00027847 | deg/d |
Q | 75.1320127447181 | 5.9573 | au |
|
| | Orbit Determination Parameters
Additional Information
|